Regional Weather Roundup
Issued by NWS

Home | Current Version | Previous Version | Text Only | Print | Product List | Glossary On
Versions: 1 2 3 4 5 6 7 8 9 10 11 12 13 14 15 16 17 18 19 20 21 22 23 24 25 26 27 28 29 30 31 32 33 34 35 36 37 38 39 40 41 42 43 44 45 46 47 48 49 50
000
ASUS43 KBIS 180510
RWRND

NORTH DAKOTA REGIONAL WEATHER ROUNDUP
NATIONAL WEATHER SERVICE BISMARCK ND
1200 AM CDT SAT APR 18 2015

NOTE: "FAIR" INDICATES FEW OR NO CLOUDS BELOW 12,000 FEET WITH NO
SIGNIFICANT WEATHER AND/OR OBSTRUCTIONS TO VISIBILITY.


NDZ001>003-009>011-017-180600-
NORTHWEST NORTH DAKOTA

CITY           SKY/WX    TMP DP  RH WIND       PRES   REMARKS
WILLISTON      CLEAR     53  29  39 SE9       30.07R
MINOT          CLEAR     42  24  49 NE7       30.11S
MINOT AFB      CLEAR     47  28  46 E12       30.11R
$$

NDZ018>021-031>035-040>046-180600-
SOUTHWEST NORTH DAKOTA

CITY           SKY/WX    TMP DP  RH WIND       PRES   REMARKS
BISMARCK       PTCLDY    44  29  55 NE7       30.11R
DICKINSON      PTCLDY    41  20  43 S7        30.06F
GARRISON         N/A     49  28  44 E5        30.10S
HETTINGER ARPT PTCLDY    40  24  53 CALM      30.09F
$$

NDZ004>008-012>016-024-026-027-054-180600-
NORTHEAST NORTH DAKOTA

CITY           SKY/WX    TMP DP  RH WIND       PRES   REMARKS
GRAND FORKS    CLEAR     36  27  69 N7        30.15R
GRND FRKS AFB  CLEAR     38  27  62 NE5       30.15R
DEVILS LAKE    CLEAR     43  25  49 E9        30.15S
$$

NDZ022-023-025-028>030-036>039-047>053-180600-
SOUTHEAST NORTH DAKOTA

CITY           SKY/WX    TMP DP  RH WIND       PRES   REMARKS
FARGO          PTCLDY    52  17  25 N8        30.10R
JAMESTOWN      CLEAR     46  22  38 NE10      30.11S
$$




USA.gov is the U.S. government's official web portal to all federal, state and local government web resources and services.